| time (UTC) | temp C | wind direction | speed KPH | gust KPH | rain 1hr cm | rain 24hr cm | rain mn cm | humidity % | barometer mb |
| 20260504190018 | 23 | 45 | 1.6 | 9.7 | 0.00 | 0.00 | 0.00 | 30 | 1006.3 |
| 20260504185018 | 23 | 113 | 1.6 | 8.0 | 0.00 | 0.00 | 0.00 | 29 | 1006.6 |
| 20260504184019 | 23 | 90 | 1.6 | 8.0 | 0.00 | 0.00 | 0.00 | 29 | 1006.6 |
| 20260504183017 | 22 | 90 | 3.2 | 9.7 | 0.00 | 0.00 | 0.00 | 28 | 1006.6 |
| 20260504182017 | 22 | 90 | 3.2 | 9.7 | 0.00 | 0.00 | 0.00 | 30 | 1006.5 |
| 20260504181018 | 22 | 45 | 1.6 | 8.0 | 0.00 | 0.00 | 0.00 | 32 | 1006.6 |
| 20260504180017 | 22 | 90 | 1.6 | 9.7 | 0.00 | 0.00 | 0.00 | 33 | 1006.6 |
| 20260504175017 | 21 | 90 | 3.2 | 9.7 | 0.00 | 0.00 | 0.00 | 34 | 1006.7 |
| 20260504174037 | 21 | 90 | 3.2 | 9.7 | 0.00 | 0.00 | 0.00 | 38 | 1006.7 |
| 20260504173018 | 21 | 45 | 1.6 | 8.0 | 0.00 | 0.00 | 0.00 | 39 | 1006.7 |
| 20260504172017 | 21 | 45 | 3.2 | 8.0 | 0.00 | 0.00 | 0.00 | 40 | 1006.9 |
| 20260504171017 | 20 | 68 | 1.6 | 6.4 | 0.00 | 0.00 | 0.00 | 39 | 1006.9 |
| 20260504151017 | 13 | 0 | 1.6 | 3.2 | 0.00 | 0.00 | 0.00 | 60 | 1007.7 |
| 20260504141037 | 7 | 0.0 | 0.0 | 0.00 | 0.00 | 0.00 | 86 | 1007.6 | |
| 20260504081016 | 8 | 0.0 | 0.0 | 0.00 | 0.00 | 0.00 | 73 | 1007.6 | |
| 20260504050017 | 13 | 0.0 | 0.0 | 0.00 | 0.00 | 0.00 | 59 | 1006.7 | |
| 20260504045017 | 14 | 0.0 | 3.2 | 0.00 | 0.00 | 0.00 | 56 | 1006.4 | |
| 20260504044017 | 15 | 0.0 | 0.0 | 0.00 | 0.00 | 0.00 | 54 | 1006.5 | |
| 20260504043038 | 15 | 0.0 | 0.0 | 0.00 | 0.00 | 0.00 | 53 | 1006.7 | |
| 20260504042017 | 15 | 0.0 | 0.0 | 0.00 | 0.00 | 0.00 | 55 | 1006.2 | |
| 20260504041017 | 15 | 0.0 | 0.0 | 0.00 | 0.00 | 0.00 | 54 | 1006.0 | |
| 20260504040017 | 16 | 0.0 | 0.0 | 0.00 | 0.00 | 0.00 | 54 | 1006.0 | |
| 20260504035017 | 16 | 0.0 | 0.0 | 0.00 | 0.00 | 0.00 | 52 | 1005.7 | |
| 20260504034017 | 16 | 0.0 | 0.0 | 0.00 | 0.00 | 0.00 | 51 | 1005.5 | |
| 20260504033017 | 17 | 0.0 | 0.0 | 0.00 | 0.00 | 0.00 | 50 | 1005.5 | |
| 20260504032037 | 17 | 0.0 | 0.0 | 0.00 | 0.00 | 0.00 | 51 | 1004.9 | |
| 20260504031017 | 17 | 0.0 | 0.0 | 0.00 | 0.00 | 0.00 | 49 | 1005.0 | |
| 20260504030037 | 18 | 0.0 | 0.0 | 0.00 | 0.00 | 0.00 | 50 | 1005.0 | |
| 20260504025017 | 18 | 0.0 | 0.0 | 0.00 | 0.00 | 0.00 | 47 | 1004.6 | |
| 20260504024017 | 19 | 0.0 | 0.0 | 0.00 | 0.00 | 0.00 | 46 | 1004.5 | |
| 20260504023017 | 20 | 0.0 | 0.0 | 0.00 | 0.00 | 0.00 | 44 | 1004.7 | |
| 20260504022017 | 21 | 0.0 | 0.0 | 0.00 | 0.00 | 0.00 | 41 | 1004.1 | |
| 20260504021017 | 21 | 0.0 | 1.6 | 0.00 | 0.00 | 0.00 | 41 | 1004.3 | |
| 20260504020017 | 22 | 0.0 | 0.0 | 0.00 | 0.00 | 0.00 | 37 | 1004.3 | |
| 20260504015017 | 23 | 0.0 | 1.6 | 0.00 | 0.00 | 0.00 | 35 | 1004.3 | |
| 20260504014017 | 24 | 0.0 | 4.8 | 0.00 | 0.00 | 0.00 | 31 | 1004.4 | |
| 20260504013017 | 25 | 0.0 | 1.6 | 0.00 | 0.00 | 0.00 | 27 | 1004.4 | |
| 20260504012017 | 26 | 0.0 | 1.6 | 0.00 | 0.00 | 0.00 | 24 | 1004.6 | |
| 20260504011017 | 26 | 0.0 | 1.6 | 0.00 | 0.00 | 0.00 | 25 | 1004.6 | |
| 20260504010016 | 26 | 0.0 | 3.2 | 0.00 | 0.00 | 0.00 | 23 | 1004.6 | |
| 20260504005017 | 26 | 0.0 | 1.6 | 0.00 | 0.00 | 0.00 | 25 | 1004.9 | |
| 20260504004037 | 26 | 0.0 | 1.6 | 0.00 | 0.00 | 0.00 | 23 | 1005.0 | |
| 20260504003017 | 26 | 0.0 | 3.2 | 0.00 | 0.00 | 0.00 | 21 | 1005.0 | |
| 20260504002016 | 26 | 0.0 | 4.8 | 0.00 | 0.00 | 0.00 | 23 | 1005.2 | |
| 20260504001016 | 26 | 248 | 1.6 | 4.8 | 0.00 | 0.00 | 0.00 | 20 | 1005.3 |
| 20260504000016 | 27 | 270 | 3.2 | 9.7 | 0.00 | 0.00 | 0.00 | 19 | 1005.4 |
| 20260503235017 | 27 | 225 | 1.6 | 6.4 | 0.00 | 0.00 | 0.00 | 21 | 1005.6 |
| 20260503234017 | 27 | 45 | 3.2 | 8.0 | 0.00 | 0.00 | 0.00 | 20 | 1005.9 |
| 20260503233017 | 28 | 0.0 | 4.8 | 0.00 | 0.00 | 0.00 | 19 | 1005.9 | |
| 20260503232017 | 28 | 0.0 | 6.4 | 0.00 | 0.00 | 0.00 | 21 | 1006.2 | |
| 20260503231016 | 27 | 248 | 1.6 | 9.7 | 0.00 | 0.00 | 0.00 | 22 | 1006.2 |
| 20260503230036 | 27 | 0.0 | 4.8 | 0.00 | 0.00 | 0.00 | 21 | 1006.1 | |
| 20260503225016 | 27 | 248 | 3.2 | 12.9 | 0.00 | 0.00 | 0.00 | 20 | 1006.4 |
| 20260503224017 | 27 | 270 | 1.6 | 8.0 | 0.00 | 0.00 | 0.00 | 22 | 1006.9 |
| 20260503223017 | 27 | 225 | 1.6 | 12.9 | 0.00 | 0.00 | 0.00 | 22 | 1006.9 |
| 20260503222016 | 27 | 270 | 1.6 | 8.0 | 0.00 | 0.00 | 0.00 | 21 | 1007.0 |
| 20260503221016 | 27 | 270 | 1.6 | 12.9 | 0.00 | 0.00 | 0.00 | 19 | 1007.4 |
| 20260503220016 | 27 | 225 | 1.6 | 11.3 | 0.00 | 0.00 | 0.00 | 22 | 1007.4 |
| 20260503215037 | 27 | 225 | 1.6 | 9.7 | 0.00 | 0.00 | 0.00 | 20 | 1007.5 |
| 20260503214016 | 27 | 180 | 1.6 | 9.7 | 0.00 | 0.00 | 0.00 | 21 | 1007.6 |
| 20260503213036 | 27 | 270 | 4.8 | 12.9 | 0.00 | 0.00 | 0.00 | 21 | 1007.8 |
| 20260503212016 | 27 | 270 | 3.2 | 8.0 | 0.00 | 0.00 | 0.00 | 22 | 1008.1 |
| 20260503211016 | 27 | 225 | 1.6 | 6.4 | 0.00 | 0.00 | 0.00 | 21 | 1008.1 |
| 20260503210016 | 27 | 270 | 1.6 | 11.3 | 0.00 | 0.00 | 0.00 | 21 | 1008.1 |
| 20260503205016 | 27 | 225 | 4.8 | 9.7 | 0.00 | 0.00 | 0.00 | 19 | 1008.2 |
| 20260503204016 | 27 | 90 | 3.2 | 14.5 | 0.00 | 0.00 | 0.00 | 23 | 1008.5 |
| 20260503203018 | 26 | 90 | 1.6 | 9.7 | 0.00 | 0.00 | 0.00 | 24 | 1008.4 |
| 20260503202018 | 26 | 270 | 1.6 | 8.0 | 0.00 | 0.00 | 0.00 | 25 | 1008.8 |
| 20260503201018 | 26 | 113 | 1.6 | 8.0 | 0.00 | 0.00 | 0.00 | 23 | 1008.9 |
| 20260503200018 | 26 | 315 | 3.2 | 6.4 | 0.00 | 0.00 | 0.00 | 24 | 1008.9 |
| 20260503195018 | 25 | 0.0 | 1.6 | 0.00 | 0.00 | 0.00 | 25 | 1009.2 | |
| 20260503194018 | 25 | 248 | 1.6 | 6.4 | 0.00 | 0.00 | 0.00 | 25 | 1009.2 |
| 20260503193018 | 25 | 270 | 1.6 | 8.0 | 0.00 | 0.00 | 0.00 | 25 | 1009.2 |
| 20260503192036 | 24 | 90 | 1.6 | 6.4 | 0.00 | 0.00 | 0.00 | 31 | 1009.5 |
| 20260503191018 | 23 | 45 | 4.8 | 11.3 | 0.00 | 0.00 | 0.00 | 29 | 1009.8 |